Regional Weather Roundup
Issued by NWS

Home | Current Version | Previous Version | Text Only | Print | Product List | Glossary Off
Versions: 1 2 3 4 5 6 7 8 9 10 11 12 13 14 15 16 17 18 19 20 21 22 23 24 25 26 27 28 29 30 31 32 33 34 35 36 37 38 39 40 41 42 43 44 45 46 47 48 49 50

000
ASUS45 KABQ 200410
RWRNM
WEATHER ROUNDUP FOR NEW MEXICO
NATIONAL WEATHER SERVICE ALBUQUERQUE NM
1000 PM MDT TUE AUG 19 2014

NOTE: "FAIR" MEANS FEW OR NO CLOUDS BELOW 12,000 FEET AGL WITH NO
       SIGNIFICANT WEATHER OR OBSTRUCTIONS TO VISION.

      THIS PRODUCT IS RELEASED AS TWO VERSIONS.  ONE VERSION NEAR
      THE TOP OF THE HOUR CONTAINING PRELIMINARY DATA FROM ALBUQUERQUE
      AND OTHER STATIONS.  A FINAL VERSION WITH ADDITIONAL DATA IS
      ISSUED ABOUT 10 MINUTES AFTER THE HOUR.

NMZ501-503-504-510>518-200500-
NORTHWEST PLATEAU/NORTHCENTRAL MOUNTAINS

CITY           SKY/WX    TMP DP  RH WIND       PRES   REMARKS
FARMINGTON     MOCLDY    65  56  72 CALM      30.04R
LOS ALAMOS     CLOUDY    70  42  36 NW6G17    30.13R
SANTA FE       CLOUDY    73  46  38 CALM      30.07R
TAOS           MOCLDY    64  45  48 E8        30.13R
ANGEL FIRE     MOCLDY    54  49  85 CALM      30.23S

$$
NMZ402-403-502-505>509-200500-
WESTCENTRAL MOUNTAINS/SOUTHWEST MOUNTAINS

CITY           SKY/WX    TMP DP  RH WIND       PRES   REMARKS
GALLUP         CLOUDY    62  56  80 S5        30.13R
SILVER CITY    MOCLDY    66  54  63 MISG      30.09R

$$
NMZ407-409-411-412-200500-
SOUTHERN DESERTS

CITY           SKY/WX    TMP DP  RH WIND       PRES   REMARKS
LORDSBURG      FAIR      64  59  82 W8        30.04R
DEMING         PTCLDY    71  56  58 W13       30.01R
LAS CRUCES     MOCLDY    73  57  57 W7        30.00R
HOLLOMAN AFB   MOCLDY    79  57  47 CALM      29.94R
ALAMOGORDO     MOCLDY    77  55  47 W5        29.97R
T OR C         CLOUDY    74  54  49 W17       29.99R

$$
NMZ519>523-200500-
CENTRAL VALLEYS/CENTRAL HIGHLANDS

CITY           SKY/WX    TMP DP  RH WIND       PRES   REMARKS
ALBUQUERQUE    MOCLDY    72  52  49 S10       30.04R
DOUBLE EAGLE   MOCLDY    70  48  46 SW3       30.06R
MORIARTY ARPT  FAIR      69  48  47 CALM      30.10R
CLINES CORNERS CLOUDY    68  47  46 SW10      30.13R
BELEN          FAIR      69  52  55 NE3       30.04R
SOCORRO        FAIR      76  52  43 CALM      29.98R

$$
NMZ524>526-539-540-200500-
SOUTHCENTRAL MOUNTAINS

CITY           SKY/WX    TMP DP  RH WIND       PRES   REMARKS
RUIDOSO        MOCLDY    64  50  59 NW5       30.15R

$$
NMZ527>531-200500-
NORTHEAST HIGHLANDS/NORTHEAST PLAINS

CITY           SKY/WX    TMP DP  RH WIND       PRES   REMARKS
LAS VEGAS      MOCLDY    67  43  41 S9        30.10S
RATON          CLOUDY    65  53  65 E9        30.03S
CLAYTON        CLEAR     75  54  47 S14       29.97R

$$
NMZ532>537-200500-
EASTCENTRAL PLAINS

CITY           SKY/WX    TMP DP  RH WIND       PRES   REMARKS
TUCUMCARI      CLEAR     81  54  39 S9        29.90R
CANNON AFB     PTCLDY    76  59  54 SE8       29.95R
CLOVIS AIRPORT   N/A     75  57  53 SE13      29.98R

$$
NMZ028-029-538-200500-
SOUTHEAST PLAINS

CITY           SKY/WX    TMP DP  RH WIND       PRES   REMARKS
ROSWELL        MOCLDY    82  54  37 SW9       29.87R
ARTESIA        PTCLDY    82  55  39 S9        29.88R
CARLSBAD       MOCLDY    86  58  38 W13       29.87R
HOBBS          CLEAR     81  59  47 S21       29.94R


$$



USA.gov is the U.S. government's official web portal to all federal, state and local government web resources and services.